sat.trackr.live / text

‹ back to catalog

WFOV (USA 332)

NORAD 52940 · 2022-073A

PAYLOAD ACTIVE UNKNOWN

§ Identity

Operator
Country
US
Launch date
2022-07-01
Launch site
AFETR
Launch vehicle
Mass (kg)
RCS (m²)

Purposes: comms

External: N2YO · Heavens-Above · Gunter

§ Orbital elements

Epoch: 2026-09-19T22:40:11.032896Z

Period
1,436.04 min
Inclination
3.9470°
Eccentricity
0.0002137
Mean motion
1.00275826 rev/d
Perigee alt
35,776.5 km
Apogee alt
35,794.5 km
Semi-major
42,163.6 km
B*
0.0000e+0
RAAN
77.2616°
Arg perigee
161.6764°
Mean anomaly
219.2440°
Rev number
1,532

§ Raw data

WFOV (USA 332)1 52940U 22073A   26262.94457214 -.00000365  00000+0  00000+0 0  99912 52940   3.9470  77.2616 0002137 161.6764 219.2440  1.00275826 15322

JSON: /api/v1/satellites/52940 · /tle

For live sub-satellite position, see the globe view (requires WebGL).

§ Visibility from observer

Set your observer location to see the next 7 days of passes ≥ 10°. The values pass through the URL so the page stays shareable.

No JS? Fill the form by hand. The geolocation button needs JavaScript.